This is the latest recevied weather packets stored in our database for station/object SQ8AQL-16. If no packets are shown the sender has not sent any weather packets the latest 1 day(s).
| Time | Temp. | Humidity | Pressure | Rain* | Wind** | Luminosity | Snow |
|---|---|---|---|---|---|---|---|
| 1778099849 | 20.56° C | 48% | 1009.6 hPa | - | - | - | - |
| 1778097145 | 20.56° C | 48% | 1009.5 hPa | - | - | - | - |
| 1778096244 | 20.56° C | 48% | 1009.5 hPa | - | - | - | - |
| 1778092641 | 23.89° C | 45% | 1008.8 hPa | - | - | 15 W/m² | - |
| 1778090834 | 23.89° C | 45% | 1008.6 hPa | - | - | 15 W/m² | - |
| 1778088130 | 23.89° C | 45% | 1008.4 hPa | - | - | 15 W/m² | - |
| 1778072808 | 26.11° C | 31% | 1008.6 hPa | - | - | 110 W/m² | - |
| 1778069203 | 26.11° C | 31% | 1008.9 hPa | - | - | 110 W/m² | - |
| 1778061994 | 28.33° C | 27% | 1008.6 hPa | - | - | 751 W/m² | - |
| 1778061093 | 25.56° C | 31% | 1008.7 hPa | - | - | 707 W/m² | - |
| 1778060192 | 23.33° C | 36% | 1008.8 hPa | - | - | 44 W/m² | - |
| 1778058390 | 23.33° C | 36% | 1009.1 hPa | - | - | 44 W/m² | - |
| 1778057489 | 22.78° C | 36% | 1009 hPa | - | - | 38 W/m² | - |
| 1778056588 | 22.22° C | 38% | 1008.9 hPa | - | - | 32 W/m² | - |
| 1778055687 | 22.22° C | 38% | 1008.8 hPa | - | - | 31 W/m² | - |
| 1778054786 | 21.67° C | 38% | 1008.8 hPa | - | - | 27 W/m² | - |
| 1778052984 | 21.11° C | 38% | 1008.8 hPa | - | - | 25 W/m² | - |
| 1778052083 | 20.56° C | 39% | 1008.7 hPa | - | - | 32 W/m² | - |
| 1778051182 | 20.56° C | 40% | 1008.9 hPa | - | - | 27 W/m² | - |
| 1778050281 | 20.56° C | 40% | 1008.7 hPa | - | - | 32 W/m² | - |
| 1778048478 | 18.89° C | 45% | 1008.5 hPa | - | - | 34 W/m² | - |
| 1778047577 | 18.89° C | 45% | 1008.5 hPa | - | - | 34 W/m² | - |
| 1778046675 | 18.89° C | 45% | 1008.6 hPa | - | - | 34 W/m² | - |
| 1778044874 | 18.89° C | 44% | 1008.5 hPa | - | - | 32 W/m² | - |
| 1778043972 | 17.22° C | 48% | 1008.5 hPa | - | - | 16 W/m² | - |
* Rain since midnight (hover to see other rain measurements)
** Current wind speed in m/s (hover to see current wind gust speed)